Starlink 30163

operational
NORAD ID: 57309 Int'l Des: 2023-096 Owner: SPXS Country: US Constellation: starlink
LEOCIRCULAR

About Starlink 30163

Description loading...

Live Position

Loading 3D Globe...

Upcoming Passes

Altitude History

Altitude vs Time

uPlot chart will show altitude changes over time

Two-Line Element Set

1 57309U 23096V 25260.91668981 .00158117 00000-0 43317-2 0 9990
2 57309 42.9973 47.7384 0028208 306.8693 285.7015 15.35606164 5761
Epoch: Sep 17, 2025 • Age: 12 hours

Current Status

Altitude 474.1 km
Velocity 7.63 km/s
Sub-Earth Point 42.41°N, 23.09°W
Launch Date Jul 10, 2023
Age 2.1 years
Type internet

Technical Details

Classification Payload
Mass 730.00 kg
Dry Mass 700.00 kg
Total Mass 730.00 kg
Length 0.30 m
Diameter 4.10 m
Span 29.00 m
Shape Box + pan
Manufacturer SPXS
Bus Type Starlink V2M
Phase Status In Orbit
Owner/State SPXS/US

Large Constellations

Loading constellations...